Morgantown, WV

2:56 PM EDT on April 24, 2018 (GMT -0400)
Morgantown Municipal-Hart

Weather History for KMGW - January, 1999

Change the Weather History Date:

Wednesday, January 20, 1999

  Actual Average Record
Temperature  
Mean Temperature 39 °F 31 °F  
Max Temperature 46 °F 39 °F 69 °F (1951)
Min Temperature 32 °F 24 °F -17 °F (1985)
Degree Days  
Heating Degree Days 26 34  
Month to date heating degree days 677  
Since 1 July heating degree days 2661  
Cooling Degree Days 0 0  
Month to date cooling degree days 0  
Year to date cooling degree days 0  
Moisture  
Dew Point 35 °F    
Average Humidity 94    
Maximum Humidity 100    
Minimum Humidity 71    
Precipitation  
Precipitation 0.07 in 0.10 in 0.92 in (1986)
Month to date precipitation 1.81  
Year to date precipitation 1.81  
Snow  
Snow 0.00 in - - ()
Snow Depth 1.00 in    
Sea Level Pressure  
Sea Level Pressure 30.09 in    
Wind  
Wind Speed 3 mph (NE)    
Max Wind Speed 6 mph    
Max Gust Speed -    
Visibility 7 miles    
Events Rain , Snow    
T = Trace of Precipitation, MM = Missing Value Source: NWS Daily Summary

Daily Weather History Graph

Daily Weather History Graph

Search for Another Location

Airport or City:

Astronomy

Jan. 20, 1999 Rise Set
Actual Time 7:36 AM EST 5:25 PM EST
Civil Twilight 7:07 AM EST 5:54 PM EST
Nautical Twilight 6:34 AM EST 6:27 PM EST
Astronomical Twilight 6:02 AM EST 6:59 PM EST
Moon 9:30 AM EST (1/20) 8:48 PM EST (1/20)
Length of Visible Light 10h 47m
Length of Day
9h 48m
Waxing Crescent, 10% of the Moon is Illuminated
Jan 20
Waxing Crescent
Jan 24
First Quarter
Jan 31
Full
Feb 8
Last Quarter
Feb 16
New

Hourly Weather History & Observations

Time (EST) Temp. Windchill Dew Point Humidity Pressure Visibility Wind Dir Wind Speed Gust Speed Precip Events Conditions
12:04 AM 32.0 °F 28.7 °F 32.0 °F 100% 30.10 in 1.0 mi ESE 3.5 mph - 0.01 in Snow Light Snow
12:11 AM 32.0 °F 28.7 °F 32.0 °F 100% 30.10 in 2.5 mi ESE 3.5 mph - 0.01 in Snow Light Snow
12:25 AM 32.0 °F 27.5 °F 32.0 °F 100% 30.09 in 4.0 mi ESE 4.6 mph - 0.02 in Rain , Snow Light Freezing Rain
12:53 AM 33.1 °F - 32.0 °F 96% 30.12 in 8.0 mi Calm Calm - 0.02 in Rain Light Rain
12:58 AM 33.8 °F - 32.0 °F 93% 30.09 in 9.0 mi Calm Calm - 0.00 in Rain Light Rain
1:53 AM 33.1 °F - 32.0 °F 96% 30.13 in 6.0 mi Calm Calm - 0.00 in   Overcast
2:53 AM 33.1 °F - 32.0 °F 96% 30.12 in 10.0 mi Calm Calm - 0.00 in Rain Light Rain
3:53 AM 33.1 °F 27.7 °F 32.0 °F 96% 30.10 in 10.0 mi South 5.8 mph - 0.00 in Rain Light Rain
4:53 AM 37.0 °F - 33.1 °F 86% 30.09 in 10.0 mi Calm Calm - 0.01 in Rain Light Rain
5:07 AM 35.6 °F 32.8 °F 33.8 °F 93% 30.07 in 10.0 mi ESE 3.5 mph - 0.00 in Rain Light Rain
5:53 AM 35.1 °F 31.0 °F 35.1 °F 100% 30.09 in 6.0 mi East 4.6 mph - 0.01 in Rain Light Rain
6:53 AM 36.0 °F - 35.1 °F 97% 30.09 in 8.0 mi Calm Calm - 0.01 in Rain Light Rain
7:16 AM 35.6 °F 32.8 °F 35.6 °F 100% 30.07 in 5.0 mi North 3.5 mph - 0.01 in Rain Light Rain
8:14 AM 35.6 °F - 33.8 °F 93% 30.08 in 1.8 mi Calm Calm - 0.01 in Rain Light Rain
8:24 AM 35.6 °F 32.8 °F 35.6 °F 100% 30.08 in 1.2 mi NE 3.5 mph - 0.01 in Rain Light Rain
8:28 AM 35.6 °F 31.7 °F 33.8 °F 93% 30.08 in 2.0 mi NE 4.6 mph - 0.01 in Rain Light Rain
8:33 AM 35.6 °F 32.8 °F 35.6 °F 100% 30.09 in 3.0 mi WNW 3.5 mph - 0.01 in Rain Light Rain
8:43 AM 35.6 °F 32.8 °F 33.8 °F 93% 30.09 in 2.0 mi NNE 3.5 mph - 0.01 in Rain Light Rain
8:53 AM 35.1 °F - 34.0 °F 96% 30.12 in 5.0 mi Calm Calm - 0.02 in Rain Light Rain
9:53 AM 37.0 °F - 37.0 °F 100% 30.11 in 2.0 mi Calm Calm - 0.00 in   Overcast
10:01 AM 37.4 °F - 37.4 °F 100% 30.08 in 3.0 mi Calm Calm - N/A   Overcast
10:53 AM 39.0 °F 36.8 °F 37.9 °F 96% 30.13 in 5.0 mi NE 3.5 mph - N/A   Overcast
11:53 AM 41.0 °F 38.0 °F 37.9 °F 89% 30.10 in 7.0 mi ENE 4.6 mph - N/A   Overcast
12:53 PM 42.1 °F 39.2 °F 39.0 °F 89% 30.08 in 10.0 mi Variable 4.6 mph - N/A   Overcast
1:53 PM 43.0 °F 40.3 °F 39.9 °F 89% 30.06 in 10.0 mi NNE 4.6 mph - N/A   Overcast
2:53 PM 45.0 °F - 39.9 °F 82% 30.06 in 10.0 mi Calm Calm - N/A   Overcast
3:53 PM 46.0 °F 43.9 °F 37.0 °F 71% 30.06 in 10.0 mi North 4.6 mph - N/A   Mostly Cloudy
4:53 PM 44.1 °F 41.5 °F 37.0 °F 76% 30.06 in 10.0 mi East 4.6 mph - N/A   Mostly Cloudy
5:53 PM 42.1 °F 39.2 °F 37.0 °F 82% 30.06 in 10.0 mi North 4.6 mph - N/A   Overcast
6:53 PM 39.0 °F 35.7 °F 37.0 °F 93% 30.08 in 10.0 mi NNE 4.6 mph - N/A   Mostly Cloudy
7:53 PM 37.0 °F 34.5 °F 36.0 °F 96% 30.09 in 10.0 mi NNE 3.5 mph - N/A   Mostly Cloudy
8:53 PM 35.1 °F - 34.0 °F 96% 30.08 in 10.0 mi Calm Calm - N/A   Scattered Clouds
9:53 PM 34.0 °F 29.8 °F 34.0 °F 100% 30.08 in 10.0 mi North 4.6 mph - N/A   Scattered Clouds
10:53 PM 34.0 °F 29.8 °F 34.0 °F 100% 30.06 in 10.0 mi East 4.6 mph - N/A   Clear